Regional Weather Roundup
Issued by NWS

Home | Current Version | Previous Version | Text Only | Print | Product List | Glossary On
Versions: 1 2 3 4 5 6 7 8 9 10 11 12 13 14 15 16 17 18 19 20 21 22 23 24 25 26 27 28 29 30 31 32 33 34 35 36 37 38 39 40 41 42 43 44 45 46 47 48 49 50
000
ASUS44 KEWX 300812
RWRTX
SOUTH TEXAS REGIONAL WEATHER ROUNDUP
NATIONAL WEATHER SERVICE AUSTIN/SAN ANTONIO TX
300 AM CDT TUE MAY 30 2017

NOTE: "FAIR" INDICATED FEW OR NO CLOUDS BELOW 12,000 FEET WITH NO
SIGNIFICANT WEATHER AND/OR OBSTRUCTIONS TO VISIBILITY.

* - THESE STATIONS ARE NOT NWS OR FAA STATIONS...AND ARE NOT SUBJECT
    TO NWS AND FAA QUALITY CONTROL.

TXZ171-172-183>190-300900-
TEXAS HILL COUNTRY AND EDWARDS PLATEAU

CITY           SKY/WX    TMP DP  RH WIND       PRES   REMARKS
JUNCTION       CLOUDY    71  65  81 CALM      30.08F
*LLANO         CLEAR     72  66  83 CALM      30.10S
BURNET         CLEAR     69  65  86 NE3       30.09F
*HORSESHOE BAY NOT AVBL
*KERRVILLE     PTCLDY    66  65  95 CALM      30.08S
*FREDERICKSBRG MOCLDY    69  65  86 CALM      30.09S
*ROCKSPRINGS     N/A    N/A N/A N/A MISG        N/A
*BOERNE STAGE  CLOUDY    66  64  94 CALM      30.08S
*CASTROVILLE   PTCLDY    71  69  92 CALM      30.06R
HONDO          PTCLDY    72  68  87 E5        30.04F
*UVALDE        PTCLDY    71  67  89 CALM      30.04F
DEL RIO        CLOUDY    73  68  84 NE10      30.00F
LAUGHLIN AFB   MOCLDY    72  68  87 NE8       30.01F
CARRIZO SPRGS  CLOUDY    72  70  94 SE5       30.00S
*EAGLE PASS    NOT AVBL
$$

TXZ173-191>194-202-209-217>225-228-300900-
CENTRAL AND SOUTH CENTRAL TEXAS

CITY           SKY/WX    TMP DP  RH WIND       PRES   REMARKS
GEORGETOWN     CLOUDY    70  64  83 CALM      30.05F
AUSTIN/BERGSTM PTCLDY    70  68  93 CALM      30.04F
AUSTIN/MABRY   CLOUDY    71  67  87 CALM      30.05F
*AUSTIN/EXEC   CLOUDY    70  70 100 CALM      30.05F
*LAGO VISTA    PTCLDY    71  67  87 CALM      30.07F
SAN MARCOS       N/A    N/A N/A N/A MISG        N/A
NEW BRAUNFELS  MOCLDY    71  68  90 N3        30.03S
RANDOLPH AFB   CLOUDY    71  71 100 CALM      30.05S
PT SAN ANTONIO MOCLDY    74  69  86 SE3       30.03S
SAN ANTONIO    CLOUDY    74  68  81 E5        30.05S
STINSON FIELD  CLOUDY    74  69  85 SE3       30.02S
*LA GRANGE     CLEAR     71  69  96 CALM      30.01S
*GIDDINGS      CLEAR     68  66  93 CALM      30.04F
*GONZALES      CLEAR     71  71 100 CALM      30.03S
$$

TXZ163>164-176>182-195>201-210>213-226-227-235-300900-
SOUTHEAST TEXAS

CITY           SKY/WX    TMP DP  RH WIND       PRES   REMARKS
COLLEGE STN    CLEAR     71  69  93 CALM      30.03F
*BRYAN         CLEAR     68  68 100 CALM      30.05F FOG
*CALDWELL      NOT AVBL
*CROCKETT        N/A    N/A N/A N/A MISG        N/A
*BRENHAM       CLEAR     69  68  97 CALM      30.03F FOG
HUNTSVILLE     CLEAR     69  66  90 CALM      30.04S
CONROE         PTCLDY    66  65  96 NW3       30.03F FOG
HOUSTON BUSH   PTCLDY    72  69  90 N3        30.01F
HOUSTON HOBBY  CLOUDY    72  69  90 N5        30.00F
*HOUSTON SW AP CLOUDY    69  67  94 CALM      30.01S
PEARLAND       CLOUDY    74  70  87 CALM      30.01F
HOUSTON HOOKS  CLOUDY    71  70  96 CALM      30.02F
ELLINGTON FLD  PTCLDY    73  70  88 NE3       30.02F
SUGAR LAND     CLOUDY    71  69  93 N5        30.00F
*HOUSTON EXEC  CLOUDY    68  68 100 N5        30.03F FOG
*CLEVELAND MUN CLOUDY    68  67  96 CALM      30.04S FOG
*WHARTON       PTCLDY    68  66  94 N5        30.01F FOG
*COLUMBUS      FAIR      69  67  94 CALM      30.03F
*EAGLE LAKE    SUNNY     71  71 100 N3        30.01F
$$

TXZ214>216-236>238-300900-
THE UPPER TEXAS COAST

CITY           SKY/WX    TMP DP  RH WIND       PRES   REMARKS
*ORANGE        CLOUDY    74  68  81 SE5       30.03F
PORT ARTHUR    LGT RAIN  72  68  87 E10       30.00F
GALVESTON      CLOUDY    79  71  76 NE12      29.99F
ANGLETON       PTCLDY    70  69  97 N6        29.98F FOG
*BAY CITY      PTCLDY    70  69  97 CALM      29.98F
PALACIOS       PTCLDY    69  68  96 N6        29.99F
$$

TXZ229>234-239>247-300900-
TEXAS COASTAL BEND AND RIO GRANDE PLAINS

CITY           SKY/WX    TMP DP  RH WIND       PRES   REMARKS
VICTORIA       PTCLDY    70  68  93 NW5       30.01S
*BEEVILLE      PTCLDY   N/A N/A N/A CALM      30.01F
ROCKPORT       PTCLDY    75  70  84 N3        29.99S
*PORT ARANSAS  PTCLDY    75  71  85 CALM      29.98F
*PORT LAVACA   PTCLDY    71  71 100 CALM      29.99F
*INGLESIDE     PTCLDY    73  71  94 MISG      29.98F
CORPUS CHRISTI MOCLDY    71  71 100 W5        29.99F
CORPUS NAS     PTCLDY    75  70  84 CALM      29.98F
*ROBSTOWN      PTCLDY    72  72 100 NW3       29.99F
ALICE          PTCLDY    70  68  93 CALM      29.99F
KINGSVILLE NAS CLOUDY    71  71 100 N3        29.99F
COTULLA        CLOUDY    75  69  81 S6        30.01F
*FAITH RANCH   CLEAR     75  70  83 SE9       30.00S
LAREDO         CLOUDY    73  69  87 E8        30.00F
$$

TXZ248>255-300900-
DEEP SOUTH TEXAS

CITY           SKY/WX    TMP DP  RH WIND       PRES   REMARKS
BROWNSVILLE    PTCLDY    74  70  87 CALM      29.97F
PORT ISABEL    PTCLDY    72  69  90 N5        29.96F
*SOUTH PADRE   NOT AVBL
HARLINGEN      MOCLDY    70  70 100 NW3       29.97F
*HEBBRONVILLE  CLEAR     69  66  90 CALM      30.01F
MCALLEN        CLEAR     76  68  76 NE5       29.98F
*WESLACO       MOCLDY    71  69  94 CALM      29.97F
FALFURRIAS     PTCLDY    71  69  93 CALM      29.99F
EDINBURG       PTCLDY    72  69  89 CALM      29.99S
*ZAPATA        PTCLDY    73  69  87 SE3       29.99F
$$

TXZ213>215-236>238-242>244-246-247-251-254-255-300900-
CMAN STATIONS

STATION/POSITION TIME  TEMP    WIND        PRES    WAVE
                       AIR SEA DIR/SP/G            HT/PER
                 (UTC) (F)     (DEG/KT/KT) (MB)    (FT/S)
SABINE PASS      0748   72 82   40/  8/ 11 1017.7
SEA RIM ST PARK  0700   72      50/  6/  8 1016.9
NORTH JETTY/GLS  0748      80   80/ 14/ 16 1015.0
EAGLE POINT      0748   77 79   90/  9/ 10 1015.7
MORGANS POINT    0748   75 80   60/  6/  6 1015.8
MISSION/ARANSAS  0700   77      30/  4     1016.0
PORT O`CONNOR    0748   76      30/  6/  8 1015.1
PORT ARANSAS     0700   78 80  120/  2/  3 1015.9
MALAQUITE BEACH  0748   77 81  330/  2/  3 1015.9
BAFFIN BAY       0748   77 81              1015.6
PORT ISABEL      0748   78 83   10/  6/  9 1014.8
$$

GMZ080-GMZ150>470-300900-
OFFSHORE BUOY REPORTS

STATION/POSITION TIME  TEMP    WIND        PRES    WAVE
                       AIR SEA DIR/SP/G            HT/PER
                 (UTC) (F)     (DEG/KT/KT) (MB)    (FT/S)
$$




USA.gov is the U.S. government's official web portal to all federal, state and local government web resources and services.